Vertical_Velocity
-5 0 -1 4 1 2 -5 -7 -2 -3 -2 -2 -3 -2 -1 4 2 -2 1 -4 1 0 -2 -3 -1 -1 -1 1 -1 -3 -4 -2 -2 -0 0 -0 -1 -2 1 2 1 3 -1 0 1 0 -0 -0 1
-5 1 -2 4 2 1 -6 -3 -3 2 1 -3 -4 -4 -1 5 3 -1 -3 -3 -1 1 -1 -2 -1 -1 -0 -4 -3 -1 -2 -2 -2 -2 -1 -1 0 0 -0 0 3 3 -2 2 -2 0 -1 1 3
-7 2 -2 -1 11 4 -3 -1 0 -2 -2 -5 -2 0 2 4 1 2 -0 -3 1 1 -4 -2 -0 -1 -0 -0 -0 -2 0 1 -1 1 2 1 -1 -3 -1 -0 1 2 -2 1 -1 -1 -1 0 3
-5 -2 -8 -3 6 5 7 -6 -5 -4 -1 -2 -0 -7 -3 -2 -1 5 -2 -2 2 -1 -1 -2 -2 -2 -0 -3 -1 2 0 -0 -1 -1 -1 -2 1 2 0 0 0 1 -2 4 1 1 0 2 4
-7 -1 -8 1 12 13 9 -3 -9 -6 -2 -3 -1 -5 2 -0 2 -2 -1 -4 -10 5 1 -5 -0 -2 -2 -1 1 -0 -1 0 -2 -2 -1 -1 -3 -0 0 -0 0 -3 -2 -1 2 2 3 3 4
-7 -4 -5 -2 6 5 3 -2 -5 -3 -3 -4 4 -3 -3 -1 2 -3 -1 -1 -5 -7 5 -0 -2 -4 -6 3 -2 2 1 1 9 -8 -5 -5 -5 -5 -2 -0 0 -2 -4 -0 -1 0 -2 3 8
0 -10 -3 0 12 18 5 -9 1 3 -1 -5 -5 -3 0 -0 3 3 -2 -3 -1 -1 0 -0 -1 -3 -2 -1 -1 -1 19 199 79 11 17 19 -1 25 6 -1 1 2 -2 -1 -1 1 -2 2 4
1 -15 -1 -5 15 23 -7 5 -1 -1 3 -3 5 2 1 -1 2 2 -3 -2 -2 -0 -0 -4 -0 -2 -1 -1 -3 0 -1 6 26 16 25 15 11 16 4 -3 -0 -1 -1 -2 -3 2 -2 10 1
-5 -15 1 13 7 24 5 -4 1 -2 1 -3 -3 -0 1 -3 -1 2 -4 -3 -0 -2 -7 -5 -2 -2 -2 1 0 1 3 13 -12 14 20 8 8 20 5 -3 1 -0 3 0 -2 -3 2 4 6
-15 -13 7 7 -2 6 -6 -3 1 -6 -0 -3 -1 2 0 3 1 -1 -1 -3 2 -4 -3 -5 -2 -0 -0 -0 -0 -0 1 -3 2 -4 -4 2 23 17 10 -1 -1 -1 0 -1 -0 -1 -0 4 8
-7 -6 3 13 1 2 17 -0 -2 -2 -7 -3 1 5 4 1 4 2 -1 -2 0 3 -0 -1 -4 -0 -3 -0 -3 1 -1 -0 1 -4 -7 2 -0 2 -6 -2 0 -5 -1 8 -2 1 -3 -8 6
-21 -7 1 14 2 2 4 13 -2 -2 -4 -2 -1 1 2 2 -1 1 1 -0 -4 1 0 -1 0 -2 -0 -1 -2 -2 1 1 2 -1 -3 1 12 -7 0 -2 -3 -4 6 2 2 1 -3 -0 4
-13 12 -8 3 0 -1 2 -1 -5 -7 -6 -1 -2 3 4 2 0 1 -3 -0 0 -0 1 1 -2 -2 -2 -2 -3 1 -2 -2 2 2 10 3 -7 2 -1 -4 -1 -4 -3 -7 -3 -1 -2 0 6
0 -9 1 -4 2 -1 -9 -9 2 3 -3 -4 -3 0 1 3 -1 1 1 -3 1 2 0 1 -3 -4 -2 1 -2 -1 -5 0 3 2 4 7 -5 -2 -2 -2 -3 -1 -1 4 -0 1 -2 -2 8
1 -9 -0 7 10 -2 -1 -18 -17 16 -5 -3 1 -2 2 5 1 -2 2 -1 0 0 -0 1 -1 -2 -0 2 1 -3 -2 -4 2 -3 3 14 2 3 -1 -2 -3 -0 0 -1 -2 2 1 -5 8
-3 -9 -12 25 5 15 6 -10 8 2 7 -0 4 -1 3 4 1 -3 0 1 1 -3 0 1 2 -1 -4 -1 -0 1 -1 2 -1 -2 16 18 8 3 0 -1 3 -6 2 -3 -1 2 1 -3 3
-3 -2 -5 3 -2 12 1 6 15 6 9 -3 3 1 4 2 3 -5 -4 -1 1 -2 1 -0 1 4 1 -4 -1 -1 -1 1 -1 -2 3 15 13 6 -1 -0 -1 1 0 -1 -1 2 1 -1 1
4 -8 -4 2 20 1 -6 -4 11 4 -13 -4 -3 1 2 4 3 1 -4 1 2 0 -0 2 -0 2 4 2 0 -0 -1 1 -0 5 12 31 13 4 -0 -1 -2 -2 -1 -2 4 -0 0 -2 1
-1 -6 -5 4 12 -12 -9 -4 -4 4 -5 -6 -3 -1 1 1 -1 6 -1 1 1 1 -4 2 3 -2 -2 2 0 -1 -0 -0 1 -3 -7 3 7 8 1 2 -3 0 5 5 -4 -3 3 -0 -2
0 -5 2 10 7 -12 -0 1 2 -2 -6 -3 1 0 3 -1 2 4 0 -0 1 1 -1 1 1 4 2 -0 -1 -1 -3 0 -1 2 1 -1 -6 -6 -1 7 -1 2 -0 1 1 0 -1 -1 5
4 -7 1 -6 11 -11 -1 -8 0 4 -7 -2 -3 2 -0 1 4 3 1 -1 2 1 -0 2 -0 0 1 3 0 -0 0 -1 0 -0 -3 1 -3 -1 -4 4 1 1 5 6 5 2 -0 6 0
-4 1 -10 4 -7 -7 -6 -12 1 2 -2 -11 0 1 1 2 5 4 3 -1 -0 1 0 3 0 1 -2 -2 -2 -2 0 -2 1 1 1 1 2 2 2 -1 2 2 2 1 4 2 0 4 0
4 -11 1 -0 -1 0 1 -13 4 -6 -1 -5 -7 -2 -0 -2 4 3 5 -4 2 0 2 2 -0 -1 -1 1 -3 -1 1 4 -2 -1 -5 -6 -1 5 -1 0 2 -1 0 1 -6 -0 -0 -3 -0
8 -6 6 6 4 -12 10 -10 5 -6 11 3 2 3 -0 -1 1 5 1 -1 1 -0 1 3 1 -1 1 1 0 -1 -2 -1 -1 -4 -5 -5 3 -3 5 -2 5 0 1 6 2 -1 3 0 2
-5 4 1 -4 -7 -2 17 -7 10 1 8 11 3 -6 -0 2 -4 2 2 1 1 1 1 2 2 -0 0 0 -1 -0 0 -1 -1 -0 -2 -2 6 -3 0 5 4 1 1 7 0 -2 -3 2 1
-4 2 -3 -4 -5 0 3 -4 -14 7 -4 5 -5 2 -0 -6 2 -1 1 2 -0 0 2 1 2 1 -2 2 -0 -1 -1 1 -1 -1 2 4 -3 -5 -1 2 -2 5 8 3 3 3 3 3 4
2 -6 8 1 -1 -2 2 5 3 -12 -9 -3 2 -3 -0 -1 -3 1 3 5 1 3 1 1 2 0 -1 1 2 1 -0 -3 0 3 3 -0 -2 1 -1 2 -0 -1 -1 -0 3 3 2 1 -3
-3 -1 1 1 1 -2 1 4 -8 4 1 5 -14 -4 -1 -2 -2 -4 3 5 2 0 -0 1 0 1 0 0 1 0 1 -1 -2 -3 -0 0 1 -0 0 -5 -0 3 2 3 4 4 1 -0 -2
-5 -1 0 3 5 1 1 -2 -12 8 10 -3 2 -6 -3 4 2 11 9 4 1 1 1 3 1 1 -0 0 -0 0 -0 -1 -2 -2 -2 -3 -2 -1 -0 3 5 5 -1 -3 -2 -2 -3 -2 -1
-5 -0 -1 5 0 10 -2 -6 -12 5 6 -9 -3 2 -1 -0 6 0 0 -1 -8 -2 -0 2 4 3 -1 1 2 1 1 -1 -1 -2 -2 -1 -2 -2 -0 -1 -1 -1 1 -1 0 0 -1 -1 -1
Height
5825 5825 5824 5824 5826 5826 5824 5821 5819 5817 5815 5815 5817 5816 5815 5813 5815 5815 5810 5806 5803 5802 5802 5802 5801 5802 5801 5800 5799 5799 5800 5799 5798 5798 5800 5803 5805 5808 5811 5814 5818 5821 5825 5827 5831 5832 5834 5837 5838
5820 5819 5819 5818 5819 5821 5818 5816 5814 5813 5812 5813 5811 5811 5809 5808 5808 5807 5805 5801 5798 5797 5797 5796 5796 5795 5795 5794 5794 5794 5794 5794 5794 5793 5794 5795 5799 5803 5806 5810 5813 5817 5820 5824 5827 5829 5831 5834 5837
5814 5813 5813 5811 5813 5817 5813 5811 5809 5808 5806 5806 5807 5806 5804 5804 5804 5802 5798 5796 5794 5793 5792 5791 5790 5790 5789 5789 5789 5788 5787 5787 5787 5787 5787 5790 5793 5797 5800 5805 5808 5812 5816 5819 5822 5826 5829 5832 5835
5807 5808 5807 5806 5807 5811 5808 5804 5802 5801 5800 5801 5802 5801 5797 5799 5799 5794 5792 5792 5791 5788 5788 5787 5785 5785 5785 5784 5783 5782 5781 5781 5780 5781 5781 5783 5786 5791 5795 5799 5804 5807 5810 5813 5818 5822 5825 5829 5832
5800 5800 5800 5800 5802 5804 5801 5798 5795 5795 5795 5797 5795 5796 5794 5794 5794 5788 5786 5785 5784 5781 5781 5783 5780 5779 5780 5778 5777 5775 5774 5773 5772 5774 5775 5777 5778 5782 5788 5794 5799 5802 5806 5810 5813 5817 5821 5825 5828
5792 5793 5794 5794 5794 5796 5792 5793 5791 5791 5790 5791 5788 5789 5789 5790 5789 5783 5781 5779 5779 5778 5775 5777 5776 5775 5774 5772 5771 5770 5766 5762 5763 5764 5769 5770 5771 5776 5780 5787 5794 5799 5801 5805 5810 5815 5819 5822 5824
5785 5786 5786 5786 5786 5788 5789 5786 5786 5785 5783 5782 5783 5782 5783 5785 5784 5780 5775 5774 5774 5774 5772 5771 5770 5769 5768 5765 5764 5763 5760 5739 5746 5757 5765 5767 5771 5766 5775 5783 5788 5792 5796 5801 5806 5810 5813 5818 5820
5776 5777 5778 5778 5778 5784 5782 5778 5777 5779 5779 5779 5779 5778 5780 5779 5778 5776 5772 5770 5769 5765 5765 5765 5764 5763 5760 5759 5757 5757 5754 5749 5748 5757 5760 5759 5766 5770 5774 5778 5782 5787 5793 5798 5802 5805 5808 5814 5817
5767 5769 5770 5769 5774 5780 5773 5770 5769 5769 5770 5771 5771 5771 5774 5775 5772 5769 5768 5766 5764 5759 5759 5757 5757 5755 5752 5751 5751 5750 5748 5745 5745 5751 5757 5760 5762 5767 5768 5774 5778 5784 5789 5794 5797 5801 5805 5811 5814
5758 5761 5760 5763 5763 5768 5765 5760 5760 5759 5762 5764 5765 5766 5768 5770 5767 5765 5764 5762 5759 5756 5754 5751 5749 5747 5746 5743 5745 5744 5743 5741 5743 5748 5752 5755 5753 5762 5764 5768 5776 5780 5784 5789 5792 5797 5803 5808 5812
5749 5751 5749 5750 5754 5757 5758 5753 5753 5752 5752 5758 5759 5761 5764 5765 5762 5759 5759 5756 5755 5753 5751 5747 5744 5741 5737 5736 5737 5739 5739 5738 5737 5738 5740 5749 5755 5757 5762 5766 5772 5777 5779 5784 5789 5794 5799 5802 5809
5737 5738 5737 5742 5742 5744 5746 5749 5745 5745 5748 5750 5751 5753 5756 5758 5755 5755 5755 5752 5752 5750 5747 5744 5741 5738 5735 5733 5733 5734 5734 5733 5732 5731 5735 5740 5748 5756 5758 5763 5767 5773 5777 5783 5786 5790 5794 5801 5808
5726 5728 5727 5731 5732 5734 5737 5736 5739 5737 5743 5744 5743 5747 5750 5753 5751 5751 5750 5747 5746 5745 5744 5740 5736 5736 5734 5732 5729 5729 5730 5729 5729 5730 5731 5738 5748 5755 5757 5760 5765 5769 5775 5780 5784 5787 5791 5796 5803
5717 5716 5717 5720 5724 5726 5725 5729 5729 5735 5739 5738 5738 5740 5743 5747 5745 5746 5745 5743 5742 5741 5740 5736 5733 5732 5731 5728 5727 5726 5727 5724 5722 5724 5727 5726 5739 5751 5755 5757 5761 5766 5772 5774 5777 5782 5787 5791 5798
5705 5703 5705 5710 5715 5717 5718 5719 5723 5732 5733 5734 5735 5735 5738 5741 5740 5740 5741 5738 5738 5737 5736 5732 5730 5729 5729 5728 5725 5722 5722 5721 5719 5720 5727 5727 5736 5745 5748 5754 5759 5764 5767 5770 5773 5776 5783 5784 5793
5694 5692 5696 5704 5706 5710 5707 5710 5719 5724 5729 5731 5732 5732 5735 5736 5734 5733 5736 5734 5734 5734 5733 5731 5728 5725 5726 5727 5723 5721 5718 5715 5713 5718 5722 5725 5732 5739 5746 5752 5756 5760 5763 5766 5770 5776 5781 5780 5789
5682 5682 5685 5693 5698 5700 5698 5701 5712 5720 5721 5722 5725 5727 5730 5732 5731 5730 5731 5730 5730 5730 5730 5729 5726 5723 5721 5721 5721 5718 5717 5717 5713 5714 5719 5725 5731 5736 5743 5749 5751 5755 5759 5762 5766 5770 5774 5775 5781
5671 5671 5676 5681 5692 5687 5692 5696 5708 5713 5712 5715 5716 5721 5724 5726 5726 5727 5725 5727 5727 5726 5727 5726 5724 5723 5720 5718 5718 5716 5714 5714 5715 5717 5720 5726 5730 5734 5739 5744 5748 5751 5755 5759 5762 5765 5769 5769 5773
5661 5663 5666 5673 5680 5678 5683 5690 5700 5703 5705 5706 5709 5714 5717 5719 5721 5724 5721 5722 5721 5722 5723 5723 5722 5720 5719 5717 5716 5715 5712 5710 5714 5718 5721 5723 5727 5731 5735 5739 5742 5746 5751 5754 5756 5759 5763 5765 5766
5653 5655 5661 5669 5673 5671 5678 5681 5690 5697 5699 5700 5704 5707 5711 5713 5717 5720 5718 5717 5718 5718 5720 5720 5719 5718 5716 5714 5711 5708 5706 5705 5708 5712 5717 5720 5723 5727 5729 5732 5735 5740 5744 5747 5749 5752 5756 5758 5760
5645 5648 5656 5661 5663 5664 5672 5673 5681 5690 5692 5696 5697 5701 5704 5709 5713 5716 5715 5713 5715 5715 5716 5717 5716 5715 5714 5710 5708 5703 5701 5700 5705 5709 5712 5714 5718 5719 5722 5726 5729 5732 5737 5741 5743 5746 5748 5751 5752
5638 5644 5646 5652 5654 5657 5661 5665 5674 5683 5686 5685 5692 5696 5699 5703 5708 5711 5711 5710 5711 5712 5713 5714 5714 5713 5712 5707 5704 5701 5701 5702 5705 5706 5708 5708 5710 5713 5717 5721 5724 5728 5731 5733 5736 5738 5741 5744 5746
5632 5636 5642 5645 5647 5650 5656 5659 5670 5675 5680 5684 5691 5692 5693 5697 5701 5704 5706 5706 5708 5707 5709 5711 5710 5710 5709 5707 5704 5702 5701 5702 5702 5703 5705 5706 5708 5709 5712 5716 5718 5720 5723 5726 5728 5731 5733 5735 5738
5628 5629 5634 5639 5641 5642 5653 5653 5667 5672 5679 5681 5684 5687 5688 5691 5695 5699 5701 5702 5704 5704 5705 5707 5707 5708 5707 5707 5705 5702 5701 5702 5701 5702 5702 5703 5704 5704 5706 5711 5713 5716 5717 5720 5722 5724 5727 5728 5729
5621 5625 5630 5632 5633 5634 5651 5648 5663 5670 5674 5679 5679 5680 5683 5687 5690 5693 5696 5699 5699 5700 5701 5703 5704 5705 5705 5705 5704 5702 5701 5700 5700 5700 5699 5699 5704 5704 5704 5705 5707 5709 5711 5713 5716 5718 5720 5724 5725
5614 5619 5622 5624 5626 5632 5644 5639 5656 5664 5666 5669 5672 5677 5678 5681 5686 5689 5692 5695 5695 5696 5698 5699 5701 5702 5703 5703 5702 5701 5701 5701 5700 5700 5700 5701 5700 5700 5701 5702 5703 5704 5706 5709 5712 5714 5718 5719 5720
5610 5613 5620 5620 5624 5630 5637 5643 5656 5657 5660 5664 5668 5671 5672 5674 5680 5684 5688 5691 5692 5693 5695 5696 5697 5699 5700 5701 5700 5699 5698 5699 5699 5699 5699 5698 5698 5698 5697 5699 5701 5704 5705 5707 5709 5712 5714 5714 5715
5608 5612 5614 5615 5619 5623 5631 5639 5644 5652 5655 5659 5660 5661 5664 5667 5674 5680 5686 5688 5688 5689 5690 5692 5694 5695 5696 5697 5697 5696 5696 5696 5696 5697 5696 5695 5695 5695 5695 5696 5696 5698 5702 5703 5704 5705 5706 5707 5707
5604 5607 5610 5612 5615 5620 5627 5632 5636 5645 5646 5650 5654 5656 5661 5667 5674 5679 5682 5683 5684 5685 5686 5688 5690 5691 5692 5693 5694 5694 5693 5693 5693 5694 5694 5693 5693 5693 5694 5695 5696 5697 5698 5699 5700 5700 5701 5702 5703
5599 5603 5606 5607 5612 5619 5622 5630 5631 5636 5641 5642 5647 5652 5656 5661 5666 5671 5674 5677 5677 5679 5680 5683 5684 5686 5687 5689 5690 5690 5689 5689 5689 5689 5689 5689 5690 5690 5690 5691 5691 5692 5693 5695 5695 5695 5695 5696 5696